TimeCST,TemperatureF,Dew PointF,Humidity,Sea Level PressureIn,VisibilityMPH,Wind Direction,Wind SpeedMPH,Gust SpeedMPH,PrecipitationIn,Events,Conditions,WindDirDegrees,DateUTC
12:13 AM,5.0,3.2,92,30.22,1.5,Calm,Calm,-,N/A,,Clear,0,2013-01-07 06:13:00
12:20 AM,3.2,1.4,92,30.22,1.2,Calm,Calm,-,N/A,,Clear,0,2013-01-07 06:20:00
12:23 AM,5.0,1.4,85,30.21,2.5,Calm,Calm,-,N/A,,Clear,0,2013-01-07 06:23:00
12:30 AM,3.2,1.4,92,30.21,7.0,Calm,Calm,-,N/A,,Clear,0,2013-01-07 06:30:00
12:56 AM,4.1,1.0,87,30.24,7.0,Calm,Calm,-,N/A,,Clear,0,2013-01-07 06:56:00
1:56 AM,3.0,0.1,88,30.25,10.0,Calm,Calm,-,N/A,,Clear,0,2013-01-07 07:56:00
2:56 AM,3.0,0.1,88,30.23,10.0,Calm,Calm,-,N/A,,Clear,0,2013-01-07 08:56:00
3:56 AM,7.2,4.1,87,30.20,9.0,Calm,Calm,-,N/A,,Clear,0,2013-01-07 09:56:00
4:56 AM,10.0,8.1,92,30.17,10.0,South,3.5,-,N/A,,Clear,190,2013-01-07 10:56:00
5:56 AM,10.0,8.1,92,30.14,10.0,South,3.5,-,N/A,,Clear,190,2013-01-07 11:56:00
6:56 AM,14.0,11.1,88,30.14,10.0,Calm,Calm,-,N/A,,Clear,0,2013-01-07 12:56:00
7:56 AM,16.2,11.1,81,30.12,10.0,South,4.6,-,N/A,,Clear,190,2013-01-07 13:56:00
9:56 AM,27.1,15.1,60,30.07,10.0,South,11.5,-,N/A,,Clear,190,2013-01-07 15:56:00
10:56 AM,32.0,18.1,57,30.05,10.0,SW,16.1,25.3,N/A,,Clear,220,2013-01-07 16:56:00
11:56 AM,32.9,19.0,57,30.01,10.0,SW,17.3,25.3,N/A,,Clear,220,2013-01-07 17:56:00
12:56 PM,36.9,21.0,53,29.99,10.0,SW,17.3,23.0,N/A,,Clear,220,2013-01-07 18:56:00
1:56 PM,36.9,22.1,55,29.98,10.0,SW,15.0,24.2,N/A,,Clear,220,2013-01-07 19:56:00
2:56 PM,36.9,23.0,57,29.98,10.0,SW,9.2,21.9,N/A,,Clear,220,2013-01-07 20:56:00
3:56 PM,36.0,24.1,62,30.00,10.0,SW,6.9,-,N/A,,Clear,220,2013-01-07 21:56:00
4:56 PM,34.0,23.0,64,30.00,10.0,SSW,9.2,-,N/A,,Clear,210,2013-01-07 22:56:00
5:56 PM,33.8,23.0,65,29.97,10.0,SSW,8.1,-,N/A,,Clear,200,2013-01-07 23:56:00
6:56 PM,31.1,23.0,72,30.02,10.0,SSW,5.8,-,N/A,,Clear,200,2013-01-08 00:56:00
7:56 PM,29.1,23.0,78,30.02,10.0,Calm,Calm,-,N/A,,Clear,0,2013-01-08 01:56:00
8:56 PM,23.0,19.0,85,30.03,10.0,Calm,Calm,-,N/A,,Clear,0,2013-01-08 02:56:00
9:56 PM,24.1,22.1,92,30.03,10.0,Calm,Calm,-,N/A,,Clear,0,2013-01-08 03:56:00
10:56 PM,17.1,17.1,100,30.04,0.8,Calm,Calm,-,N/A,,Clear,0,2013-01-08 04:56:00
11:03 PM,15.8,15.8,100,30.02,0.5,Calm,Calm,-,N/A,Fog,Light Freezing Fog,0,2013-01-08 05:03:00
11:23 PM,15.8,15.8,100,30.01,0.2,Calm,Calm,-,N/A,Fog,Light Freezing Fog,0,2013-01-08 05:23:00
11:56 PM,15.8,15.8,100,30.01,0.5,Calm,Calm,-,N/A,Fog,Light Freezing Fog,0,2013-01-08 05:56:00